Regional Weather Roundup
Issued by NWS Jackson, KY

Home | Current Version | Previous Version | Text Only | Print | Product List | Glossary On
Versions: 1 2 3 4 5 6 7 8 9 10 11 12 13 14 15 16 17 18 19 20 21 22 23 24 25 26 27
000
ASUS43 KJKL 221610
RWRJKL

EAST KENTUCKY HOURLY WEATHER ROUNDUP
NATIONAL WEATHER SERVICE JACKSON KY
1100 AM EST WED FEB 22 2017

NOTE: "FAIR" INDICATES FEW OR NO CLOUDS BELOW 12,000 FEET WITH
NO SIGNIFICANT WEATHER AND/OR OBSTRUCTIONS TO VISIBILITY.

* THESE REPORTS ARE NOT UNDER NWS QUALITY CONTROL AND MAY NOT
  REPORT WEATHER SUCH AS PRECIPITATION AND FOG.

KYZ079-080-083-085-087-088-110-112-115-119-120-221700
...EASTERN KENTUCKY...

CITY           SKY/WX    TMP DP  RH WIND       PRES   REMARKS
JACKSON        LGT RAIN  53  52  96 S3        29.97S VSB 1
LONDON         CLOUDY    55  52  89 SE3       29.97S
SOMERSET*      CLOUDY    55  55 100 CALM      29.97F
MONTICELLO*    CLOUDY    57  55  93 VRB3      29.97F
WILLIAMSBURG*  PTSUNNY   57  57 100 SE5       29.97S
MIDDLESBORO*   LGT RAIN  55  53  94 CALM      29.99S
HARLAN APT*    CLOUDY    54  52  94 CALM      29.99R
PIKE CO APT*   CLOUDY    53  53 100 SE3       29.97S
BIG SANDY APT* DRIZZLE   54  54 100 CALM      29.97S
MOREHEAD APT*  CLOUDY    55  54  94 S7        29.97F FOG
ASHLAND*       CLOUDY    54  54 100 CALM      29.95S
$$

KYZ035-036-041-042-044-050-067-078-099-221700
...CENTRAL KENTUCKY...

CITY           SKY/WX    TMP DP  RH WIND       PRES   REMARKS
MT STERLING*   CLOUDY    55  54  94 S3        29.97S
FLEMING/MASON* CLOUDY    55  55  97 S7        29.96S
DANVILLE*      DRIZZLE   55  54  94 CALM      29.96S
LEXINGTON      CLOUDY    60  55  83 S10       29.94F
FRANKFORT      CLOUDY    60  54  80 S9        29.92F
LOUISVILLE     CLOUDY    65  55  70 S7        29.91F
LEBANON*       PTSUNNY   59  55  88 SE6       29.94F
GLASGOW*       CLOUDY    59  59  99 SE6       29.93F
BOWLING GREEN  PTSUNNY   63  58  83 MISG      29.91F
$$

KYZ091>093-OHZ055-061-077-WVZ005-015-034-035-042-221700
...SOUTHERN OHIO/WEST VIRGINIA...

CITY           SKY/WX    TMP DP  RH WIND       PRES   REMARKS
COVINGTON      CLOUDY    58  57  97 S9        29.91F FOG
COLUMBUS       CLOUDY    58  56  93 S8        29.92F FOG
DAYTON         FOG       56  55  97 S12       29.91F VSB 1/2
WILMINGTON     CLOUDY    55  55 100 S9        29.92F FOG
HUNTINGTON     FOG       54  52  93 VRB5      29.96F VSB 1
CHARLESTON     LGT RAIN  53  51  93 CALM      29.97F FOG
PINEVILLE*     RAIN      53  49  86 MISG      30.04S
BECKLEY        LGT RAIN  50  48  93 SE3       30.00S
BLUEFIELD      LGT RAIN  50  47  89 CALM      30.01S
LOGAN CO APT*  LGT RAIN  52  52 100 CALM      29.98S
$$

VAZ002-007-008-TNZ017-027-036-066-071-221700
...SOUTHWEST VIRGINIA/EAST TENNESSEE...

CITY           SKY/WX    TMP DP  RH WIND       PRES   REMARKS
WISE*          DRIZZLE   54  54 100 CALM      30.01R
JONESVILLE*    LGT RAIN  55  54  94 N3        30.00S
ABINGDON*      RAIN      52  51  97 E8        30.00S
BRISTOL        LGT RAIN  52  50  93 E3        29.99F FOG
MORRISTOWN*    MOSUNNY   54  54 100 E5        29.97S
SEVIERVILLE*   CLOUDY    54  52  94 E3        29.97S
KNOXVILLE      LGT RAIN  56  54  93 NE9       29.95F FOG
LAFOLLETTE*    CLOUDY    55  54  94 CALM      30.00F
OAK RIDGE      LGT RAIN  57  54  89 CALM      29.98F
CROSSVILLE     CLOUDY    55  53  93 SE6       29.95S
NASHVILLE      CLOUDY    60  57  89 CALM      29.93S
$$

...KEY TO REMARKS...
VSB - VISIBILITY IN MILES
WCI - WIND CHILL INDEX
HX  - HEAT INDEX

$$




USA.gov is the U.S. government's official web portal to all federal, state and local government web resources and services.